Other Public Products
Issued by NWS Charleston, SC

Current Version | Previous Version | Text Only | Print | Product List | Glossary Off
Versions: 1 2 3 4 5 6 7 8 9 10 11 12 13 14 15 16 17 18 19 20 21 22 23 24 25 26 27 28 29 30 31 32 33 34 35 36 37 38 39 40 41 42 43 44 45 46 47 48 49 50
000 FPUS82 KCHS 221427 OPUCHS TEST...KCHS/KSAV Gateway Observations...TEST National Weather Service Charleston SC 900 AM EST SUN JAN 22 2017 NOTE: "fair" indicates few or no clouds below 12,000 feet with no significant weather and/or obstructions to visibility. SCZ050-WAZ558-NCZ071-TXZ119-213-PAZ071-DCZ001-FLZ074-172-MI076- NYZ176-178-MAZ016-IL014-TNZ027-NJZ106-GAZ044-MD014-221500- ...Gateway Observations for Charleston International... CITY SKY/WX TMP DP RH WIND PRES REMARKS Chas Airport LGT RAIN 61 59 93 NE5 29.65F FOG Seattle CLOUDY 46 32 58 E17G24 29.39F Charlotte CLOUDY 56 54 93 N5 29.61F FOG Dallas DFW PTCLDY 52 39 61 W18G25 29.46R Dallas Love PTCLDY 52 38 58 NW16G22 29.48R Philladelphia CLOUDY 46 45 96 NE8 29.72R FOG Wash National DRIZZLE 48 48 100 N10 29.71S FOG Baltimore FOG 46 46 100 NW7 29.71R VSB 1 Miami MOSUNNY 80 70 71 S12G24 29.82S Detroit FOG 43 42 97 CALM 29.63S VSB 1/8 Newark FOG 45 44 97 N7 29.73R VSB 1/4 Laguardia FOG 44 43 96 NE8 29.73S VSB<1/4 J F K CLOUDY 46 46 100 N9 29.73F FOG Boston Logan CLOUDY 43 42 97 CALM 29.81R Ft. Lauderdale MOSUNNY 78 71 79 S14G22 29.82S Chicago O`Hare CLOUDY 41 38 89 NE5 29.62R Chicago Midway FOG 42 40 92 NE5 29.62R VSB 1/4 Houston Bush PTCLDY 58 34 40 W12G20 29.57R Houston Hobby PTCLDY 58 37 45 SW14 29.59R Nashville LGT RAIN 54 52 93 S3 29.49R Atlanta CLOUDY 58 57 97 SE8 29.56F FOG $$ GAZ044-118-TXZ119-213-NCZ071-DCZ001-MDZ014-506-PAZ021-071-NJZ106- NYZ176-178-MAZ106-OHZ011-021-055-MIZ076-KYZ091-ILZ014-INZ047- MNZ060-221500- ...Gateway Observations for Savannah International... CITY SKY/WX TMP DP RH WIND PRES REMARKS Savannah Arpt TSTM 60 58 92 SE6 29.68R Atlanta CLOUDY 58 57 97 SE8 29.56F FOG Charlotte CLOUDY 56 54 93 N5 29.61F FOG Dallas DFW PTCLDY 52 39 61 W18G25 29.46R Houston Bush PTCLDY 58 34 40 W12G20 29.57R Wash National DRIZZLE 48 48 100 N10 29.71S FOG Wash Dulles FOG 46 45 96 N7 29.71R VSB 1/8 Baltimore FOG 46 46 100 NW7 29.71R VSB 1 Philadelphia CLOUDY 46 45 96 NE8 29.72R FOG Newark FOG 45 44 97 N7 29.73R VSB 1/4 Laguardia FOG 44 43 96 NE8 29.73S VSB<1/4 J F K CLOUDY 46 46 100 N9 29.73F FOG Boston CLOUDY 43 42 97 CALM 29.81R Pittsburg CLOUDY 48 48 100 CALM 29.66R Akron CLOUDY 50 47 89 SE7 29.65R FOG Cleveland PTSUNNY 49 45 86 S7 29.66R Cincinnati CLOUDY 51 49 92 E9 29.56F Columbus N/A 48 48 100 NE5 29.60F FOG Detroit FOG 43 42 97 CALM 29.63S VSB 1/8 Chicago O`Hare CLOUDY 41 38 89 NE5 29.62R Minneapolis CLOUDY 35 33 92 N6 29.66R WCI 30 Indianapolis CLOUDY 50 48 93 E6 29.57S $$

USA.gov is the U.S. government's official web portal to all federal, state and local government web resources and services.